Wind_Speed
24 13 25 29 29 13 18 20 22 17 7 8 16 17 20 25 21 23 27 28 30 33 33 29 19 15 16 21 25 29 32 27 22 19 14 13 11 11 12 12 13 14 14 17
10 28 31 24 21 24 23 23 23 14 12 7 16 20 18 18 22 23 26 28 28 26 26 20 14 12 14 18 25 30 29 24 18 15 11 10 9 10 11 12 11 10 13 9
27 37 22 23 21 25 29 29 24 19 4 8 10 22 19 14 15 22 24 24 23 21 15 12 10 10 14 20 27 30 25 19 15 12 10 8 8 10 8 6 6 8 6 3
22 27 24 23 28 23 26 24 23 17 8 12 3 17 19 18 20 16 21 17 12 9 8 7 8 11 15 23 29 27 21 16 14 12 8 6 7 4 3 5 5 5 4 5
18 18 28 26 30 26 22 15 17 15 12 12 17 10 18 5 18 23 18 17 10 5 7 5 7 11 20 30 29 22 18 15 14 10 7 4 2 1 3 4 5 5 5 6
17 11 22 31 18 23 12 12 12 7 9 13 17 13 25 13 18 14 13 15 6 7 2 7 12 19 30 31 26 21 17 15 12 9 5 3 2 1 5 5 4 5 6 7
16 17 3 13 22 20 23 14 8 9 9 11 11 12 19 9 13 16 17 13 5 4 6 14 21 28 34 30 24 20 16 13 12 9 4 4 1 3 5 6 4 2 3 5
14 10 21 17 16 19 27 23 10 14 13 9 13 11 9 17 25 30 22 16 7 8 11 18 26 29 31 28 23 18 15 14 12 8 5 3 2 3 5 4 2 1 3 4
11 16 11 19 13 24 23 22 17 10 1 4 5 7 13 15 14 12 18 14 10 12 17 21 26 31 30 26 22 16 15 14 12 6 4 1 1 2 3 3 2 4 3 3
6 6 12 19 21 23 20 22 12 11 13 9 4 7 9 9 14 10 10 12 12 15 19 23 27 32 28 24 19 15 14 12 11 6 4 3 1 3 1 2 2 3 4 4
10 6 10 18 20 23 11 22 8 10 7 7 4 6 8 16 15 16 13 13 17 21 23 25 27 31 27 24 20 17 16 13 11 7 5 4 2 3 2 4 5 4 5 5
7 6 7 24 14 19 22 17 22 11 9 10 5 6 1 9 3 3 6 12 17 20 22 25 28 31 28 25 22 18 17 14 11 8 6 4 3 4 5 6 5 5 6 7
7 5 11 7 8 14 28 22 22 9 4 16 11 3 1 3 5 2 7 14 18 21 22 24 28 30 29 27 23 19 17 15 11 9 7 6 5 7 7 7 6 6 6 7
7 4 10 10 6 1 21 24 21 20 13 9 16 9 13 6 7 0 5 16 18 21 24 25 28 29 28 27 23 19 17 16 13 10 9 8 7 8 9 9 7 6 7 8
2 4 7 15 14 10 5 21 26 25 20 16 10 19 21 15 14 5 8 15 20 21 24 26 29 29 29 28 24 20 17 18 15 11 11 10 9 8 9 10 10 7 8 9
3 3 10 10 11 9 10 8 21 25 22 18 10 18 19 21 10 4 8 18 22 24 25 26 29 32 31 29 25 22 19 20 17 13 12 11 10 9 8 7 7 8 7 9
2 0 5 10 2 6 10 15 12 13 18 23 20 13 5 9 12 11 13 20 25 27 27 30 34 36 34 29 26 24 21 21 19 15 13 12 11 11 9 7 6 6 6 9
4 2 2 3 1 10 2 10 12 13 9 21 21 18 17 21 27 19 11 20 25 27 29 28 32 35 35 28 25 24 23 22 21 18 15 13 14 13 11 9 8 7 9 10
14 3 2 3 6 3 6 10 6 5 5 12 8 12 16 19 15 22 18 19 27 32 33 30 32 34 36 31 27 26 25 23 23 21 18 15 16 15 14 11 9 8 8 8
14 7 4 2 4 13 9 14 6 2 7 14 12 11 10 13 13 16 17 21 25 30 29 30 31 33 35 33 30 28 28 26 25 23 21 17 18 17 15 13 10 10 10 9
6 4 9 6 3 2 13 15 2 9 3 18 15 14 15 8 14 23 18 16 26 32 33 31 31 33 35 34 33 31 29 29 25 23 22 19 17 18 15 15 12 10 11 10
5 6 5 4 4 4 22 6 2 6 12 15 17 16 20 21 28 30 27 21 18 30 32 33 31 34 35 35 35 34 31 27 26 25 24 22 19 19 19 17 15 12 11 11
2 2 1 3 2 7 14 4 5 10 14 18 20 21 21 23 24 24 25 21 18 27 34 33 34 35 36 37 37 35 30 29 27 27 25 24 21 19 20 20 19 16 13 11
1 1 2 3 5 8 7 10 14 16 16 20 21 22 22 24 23 24 25 21 19 23 32 34 33 36 39 40 40 31 30 31 29 29 27 26 25 22 22 21 20 19 17 14
2 4 4 2 6 14 6 19 21 27 21 23 24 24 22 23 23 21 22 21 21 23 30 36 36 37 40 41 41 39 35 34 33 31 29 28 27 25 23 24 23 22 19 17
1 2 2 2 4 4 17 21 26 22 27 27 28 31 26 23 23 20 18 17 20 24 28 34 36 37 39 40 41 42 39 37 36 34 32 31 30 28 25 25 25 22 21 18
Wind_Direction
191 197 219 212 215 235 253 234 238 234 228 245 250 268 278 286 289 283 284 282 278 282 289 295 278 267 259 241 223 214 200 192 201 219 230 239 251 268 280 273 274 277 276 288
176 221 220 223 220 223 229 234 238 248 259 247 279 280 280 284 284 285 285 278 272 281 289 282 273 257 237 226 212 193 185 191 203 214 220 230 252 273 281 278 281 278 288 287
198 224 212 207 213 215 224 229 237 244 256 245 289 281 276 280 285 293 285 271 279 279 279 262 257 236 217 203 188 177 179 189 201 203 211 231 270 289 286 278 279 286 285 268
224 225 200 206 217 209 230 227 240 240 234 255 240 284 278 290 287 285 284 278 278 295 295 263 234 214 195 180 173 172 178 188 193 199 209 246 282 282 277 287 277 278 273 231
210 200 213 207 209 204 233 222 216 228 247 274 257 276 274 226 282 280 281 281 299 290 293 247 202 182 168 168 167 170 177 183 191 194 208 257 232 267 330 311 282 270 258 233
222 208 203 221 203 204 207 197 164 185 235 245 251 241 279 257 252 265 264 267 284 331 252 168 160 160 160 163 166 172 176 182 185 189 202 197 197 336 334 321 294 286 250 226
215 222 210 202 201 192 195 197 185 211 209 241 230 217 249 251 245 252 265 274 275 246 175 161 158 159 163 166 170 172 177 181 180 178 187 185 165 338 327 331 312 276 210 205
204 193 210 193 199 190 191 190 215 217 225 234 203 230 260 231 238 238 246 268 224 198 173 165 161 164 167 170 172 173 175 177 172 172 180 172 6 334 339 347 13 127 159 175
220 227 179 183 181 183 201 212 214 238 120 220 194 240 267 248 245 232 228 227 211 183 168 165 166 167 172 174 173 174 169 170 169 169 163 123 43 347 356 24 105 124 113 131
284 244 207 189 192 191 185 178 189 213 212 218 211 237 237 223 230 217 215 204 182 169 166 168 171 172 177 176 172 169 168 167 169 166 142 125 56 7 13 73 102 126 104 117
267 277 174 175 200 185 181 189 195 199 223 209 230 231 217 228 213 221 217 195 174 170 172 171 173 175 179 177 173 172 170 167 169 168 146 130 66 27 83 101 89 114 110 126
303 294 244 206 198 197 198 195 194 197 183 218 232 231 49 241 257 225 170 163 165 168 168 171 173 177 182 180 177 177 174 169 171 176 162 142 83 43 122 122 92 95 119 132
342 237 223 172 195 206 202 204 204 212 181 204 198 189 63 250 253 167 133 151 158 161 163 170 174 181 184 183 182 180 176 172 179 183 174 157 110 76 106 119 106 107 115 128
330 275 259 208 203 353 207 208 205 207 216 191 215 209 252 256 320 53 150 158 162 169 168 172 177 183 187 186 183 181 178 180 189 187 180 167 144 99 98 105 105 108 124 122
57 280 291 273 276 286 287 219 211 214 216 221 197 218 248 253 291 327 175 168 163 172 174 179 181 185 189 189 185 184 183 186 190 188 182 176 164 133 111 107 85 100 119 127
138 318 324 262 233 252 272 257 225 218 215 218 211 228 230 252 275 248 183 183 176 183 182 183 186 189 191 190 187 188 188 189 191 188 184 182 170 157 128 124 104 85 114 127
237 324 324 218 117 308 264 239 220 225 218 221 225 227 257 250 257 254 200 189 195 187 186 189 191 192 193 189 189 191 191 189 192 189 187 185 177 164 150 136 121 109 119 138
222 206 262 284 208 232 221 28 211 199 207 229 239 247 251 253 263 271 231 210 203 194 194 193 192 194 196 189 188 192 194 189 193 194 192 187 181 169 159 145 127 118 117 139
224 216 242 263 217 315 120 24 6 206 145 15 355 277 264 292 303 274 250 233 222 207 199 205 199 196 195 191 188 191 196 191 195 198 196 191 183 175 168 156 140 128 123 132
193 233 260 268 230 212 36 342 328 243 169 7 354 335 327 331 246 261 265 247 228 215 208 204 197 194 195 191 191 191 197 195 196 198 199 196 188 183 176 170 155 141 132 120
180 185 222 219 268 277 352 328 206 187 32 341 335 326 311 285 252 273 292 286 246 219 207 203 196 195 193 191 191 193 198 201 194 196 200 200 195 189 183 176 168 155 148 135
166 165 192 201 222 224 360 11 60 358 329 335 333 319 307 295 286 285 281 278 244 208 204 206 196 194 192 192 193 196 201 198 195 195 200 202 200 193 188 183 175 169 162 157
153 275 169 229 52 347 346 310 356 340 335 338 329 326 317 307 294 290 279 261 246 217 200 202 198 193 193 194 195 199 202 196 195 197 199 204 201 200 194 191 187 182 176 176
274 71 272 245 48 337 331 31 360 346 336 337 335 329 325 317 305 295 278 254 239 219 210 200 196 197 196 197 197 200 201 196 194 196 199 203 204 201 198 198 199 197 192 186
288 317 319 294 7 334 252 338 341 337 336 337 339 341 336 327 312 300 280 248 232 226 215 207 205 202 201 199 199 199 200 199 197 196 198 202 204 204 203 203 204 207 207 202
320 333 347 336 322 244 285 304 324 327 330 333 336 339 342 337 322 308 284 247 231 224 217 213 211 205 204 202 202 201 203 201 201 197 198 202 203 203 206 206 207 209 208 204
Height
1460 1464 1449 1448 1449 1456 1455 1461 1460 1458 1460 1466 1460 1458 1455 1454 1452 1447 1442 1440 1437 1433 1430 1430 1428 1428 1430 1433 1439 1444 1451 1458 1463 1468 1469 1470 1472 1472 1470 1468 1467 1466 1465 1464
1459 1440 1424 1444 1453 1458 1457 1457 1455 1457 1458 1463 1456 1453 1449 1446 1443 1440 1436 1432 1429 1426 1425 1424 1423 1424 1426 1431 1437 1441 1450 1457 1462 1465 1466 1468 1469 1468 1466 1464 1463 1462 1462 1460
1423 1398 1431 1440 1444 1452 1451 1451 1453 1456 1457 1457 1456 1448 1441 1436 1437 1433 1429 1425 1422 1421 1420 1419 1420 1422 1425 1430 1437 1443 1450 1456 1460 1462 1464 1466 1466 1464 1462 1461 1460 1460 1459 1458
1422 1416 1423 1431 1434 1444 1448 1448 1451 1457 1466 1460 1455 1450 1436 1434 1429 1425 1420 1419 1418 1416 1416 1416 1418 1420 1424 1431 1439 1445 1450 1454 1458 1460 1462 1463 1463 1461 1460 1459 1459 1458 1458 1458
1405 1412 1420 1425 1423 1433 1434 1443 1449 1457 1461 1463 1455 1460 1421 1432 1426 1416 1411 1412 1414 1412 1412 1414 1416 1420 1427 1433 1440 1446 1449 1453 1456 1459 1460 1461 1460 1459 1458 1457 1457 1456 1456 1456
1405 1406 1411 1404 1420 1426 1437 1443 1449 1452 1454 1462 1450 1456 1405 1418 1417 1408 1405 1406 1409 1409 1411 1412 1417 1422 1428 1435 1440 1445 1449 1452 1455 1457 1458 1458 1457 1457 1457 1456 1455 1454 1453 1454
1407 1404 1402 1406 1416 1423 1433 1441 1452 1461 1458 1444 1436 1448 1413 1406 1407 1406 1402 1403 1407 1409 1410 1412 1417 1424 1429 1435 1440 1444 1448 1451 1454 1456 1456 1456 1456 1456 1456 1454 1453 1452 1452 1452
1401 1407 1396 1395 1401 1411 1418 1422 1425 1445 1437 1437 1431 1434 1407 1397 1394 1396 1399 1401 1404 1407 1409 1414 1419 1425 1431 1436 1440 1444 1448 1450 1452 1454 1455 1455 1456 1455 1454 1453 1452 1451 1451 1452
1393 1389 1383 1389 1393 1401 1411 1418 1415 1424 1428 1428 1414 1415 1399 1392 1391 1391 1392 1397 1401 1405 1409 1415 1420 1425 1432 1436 1441 1445 1447 1449 1452 1454 1454 1455 1455 1454 1453 1452 1451 1451 1452 1452
1401 1394 1379 1386 1391 1392 1393 1406 1425 1418 1427 1435 1416 1410 1398 1390 1388 1385 1388 1392 1398 1402 1408 1414 1421 1425 1432 1437 1441 1445 1447 1450 1451 1453 1454 1455 1454 1454 1453 1452 1452 1452 1452 1453
1409 1397 1380 1379 1377 1380 1395 1400 1399 1401 1406 1411 1419 1404 1383 1379 1379 1381 1382 1388 1393 1399 1406 1412 1420 1426 1432 1437 1441 1444 1447 1449 1451 1452 1454 1454 1454 1453 1453 1453 1453 1453 1453 1453
1419 1407 1384 1372 1371 1374 1381 1385 1388 1394 1413 1404 1402 1399 1381 1379 1381 1383 1385 1387 1393 1400 1406 1412 1418 1425 1430 1435 1440 1443 1446 1448 1450 1452 1454 1454 1454 1453 1453 1454 1453 1453 1453 1454
1428 1403 1386 1379 1380 1375 1373 1378 1384 1387 1393 1400 1407 1399 1379 1381 1380 1381 1383 1388 1394 1399 1405 1412 1418 1423 1429 1434 1438 1441 1444 1447 1450 1452 1454 1455 1454 1454 1454 1454 1454 1454 1454 1455
1426 1414 1394 1369 1373 1374 1378 1378 1380 1385 1390 1393 1393 1390 1376 1376 1377 1380 1384 1388 1393 1399 1402 1409 1416 1421 1427 1432 1435 1439 1443 1446 1449 1452 1454 1455 1455 1455 1455 1455 1456 1455 1456 1456
1423 1414 1403 1391 1391 1390 1384 1373 1376 1381 1384 1389 1392 1392 1375 1372 1376 1380 1384 1389 1392 1397 1401 1406 1412 1418 1424 1429 1433 1437 1442 1445 1448 1451 1453 1455 1456 1456 1457 1457 1457 1457 1457 1458
1420 1414 1407 1387 1381 1383 1383 1377 1370 1374 1380 1384 1385 1383 1378 1374 1379 1380 1381 1386 1388 1393 1397 1402 1409 1415 1420 1426 1431 1435 1440 1444 1447 1450 1453 1454 1456 1457 1458 1458 1458 1458 1459 1460
1415 1414 1409 1381 1384 1382 1379 1369 1372 1373 1376 1377 1380 1378 1375 1376 1375 1375 1378 1380 1384 1386 1392 1396 1402 1410 1416 1422 1428 1432 1437 1442 1446 1449 1452 1454 1456 1457 1458 1459 1460 1460 1460 1461
1412 1410 1408 1393 1387 1386 1361 1363 1362 1370 1372 1372 1373 1374 1371 1371 1369 1371 1373 1375 1379 1383 1386 1393 1399 1407 1414 1420 1426 1431 1436 1440 1444 1448 1451 1454 1456 1458 1459 1460 1460 1461 1461 1462
1411 1410 1402 1396 1383 1368 1363 1379 1381 1366 1382 1388 1382 1374 1371 1373 1373 1364 1367 1370 1372 1377 1380 1386 1393 1402 1410 1416 1423 1428 1433 1438 1442 1446 1449 1452 1455 1457 1459 1460 1462 1462 1462 1463
1407 1408 1406 1400 1388 1368 1387 1383 1382 1381 1376 1390 1389 1385 1382 1379 1372 1359 1364 1364 1369 1375 1380 1383 1391 1399 1407 1413 1419 1424 1430 1434 1439 1443 1447 1451 1454 1457 1459 1461 1462 1463 1464 1465
1408 1410 1406 1398 1395 1383 1387 1381 1377 1375 1385 1390 1389 1386 1382 1378 1365 1358 1360 1364 1365 1367 1375 1380 1387 1393 1400 1409 1415 1421 1426 1430 1436 1441 1445 1449 1452 1456 1459 1461 1463 1464 1466 1467
1400 1399 1400 1400 1396 1384 1390 1380 1382 1394 1393 1390 1386 1383 1378 1374 1366 1360 1359 1361 1365 1362 1370 1376 1383 1390 1397 1404 1410 1417 1421 1428 1434 1439 1442 1446 1450 1454 1457 1460 1462 1464 1466 1468
1398 1399 1397 1398 1388 1397 1396 1395 1395 1394 1391 1388 1384 1378 1373 1367 1361 1358 1353 1357 1360 1363 1363 1370 1377 1384 1393 1399 1405 1411 1417 1424 1430 1435 1439 1444 1448 1452 1455 1458 1460 1463 1466 1468
1402 1402 1400 1398 1397 1396 1396 1394 1394 1392 1389 1385 1381 1374 1368 1362 1357 1353 1348 1351 1355 1358 1363 1365 1372 1380 1386 1393 1400 1407 1414 1420 1426 1430 1436 1440 1445 1449 1453 1456 1459 1462 1464 1467
1409 1405 1400 1398 1398 1394 1390 1392 1390 1387 1384 1380 1376 1371 1364 1359 1353 1349 1345 1345 1349 1353 1357 1361 1365 1373 1379 1386 1394 1402 1409 1415 1421 1426 1431 1436 1441 1446 1449 1453 1456 1459 1463 1466
1408 1407 1404 1398 1400 1401 1395 1389 1388 1386 1381 1376 1372 1364 1361 1357 1350 1345 1340 1341 1343 1346 1351 1357 1359 1368 1374 1381 1388 1395 1402 1409 1415 1421 1427 1431 1436 1441 1445 1449 1453 1456 1460 1463